Retour au catalogue

THORAD AGENA D DEB

ActifPO
NORAD 4658·DEBRIS·🇺🇸 United States

Lancé Apr 8, 1970 depuis Vandenberg Space Force Base

Loading…

Prochains Passages (prochaines 24 heures)

TLE

FraisSource: Space-Track

Époque: Sep 14, 2026, 03:48 UTC

1 04658U 70025AS  26257.15837721  .00001424  00000-0  10093-2 0  9999
2 04658  99.9458 235.3670 0025371 325.3507  34.6000 13.99494495830841

Suivez THORAD AGENA D DEB en temps réel avec AllMySat

Download on the App Store